Regional Weather Roundup
Issued by NWS Upton, NY

Current Version | Previous Version | Graphics & Text | Print | Product List | Glossary Off
Versions: 1 2 3 4 5 6 7 8 9 10 11 12 13 14 15 16 17 18 19 20 21 22 23 24 25 26 27 28 29 30 31 32 33 34 35 36 37 38 39 40 41 42 43 44 45 46 47 48 49 50

000
ASUS41 KOKX 290305
RWROKX

REGIONAL WEATHER ROUNDUP
NATIONAL WEATHER SERVICE NEW YORK NY
1000 PM EST SUN DEC 28 2014

NOTE: "FAIR" INDICATES FEW OR NO CLOUDS BELOW 12,000 FEET WITH NO
SIGNIFICANT WEATHER AND/OR OBSTRUCTIONS TO VISIBILITY.

NYZ071-072-176-178-NJZ106-104-290400-
NEW YORK CITY METRO AREA


CITY           SKY/WX    TMP DP  RH WIND       PRES   REMARKS
CENTRAL PARK   CLOUDY    46  31  55 MISG      30.06R
LAGUARDIA APRT CLOUDY    45  33  63 N15       30.03R
KENNEDY INTL   CLOUDY    47  32  56 N13       30.03R
NEWARK/LIBERTY MOCLDY    46  32  58 NW10      30.04R
BRNX BOT. GARD   N/A     43  32  65 NW5       30.03F
TETERBORO      MOCLDY    45  32  60 NW8       30.04R
$$

NYZ177-179-078>081-290400-
LONG ISLAND NEW YORK

CITY           SKY/WX    TMP DP  RH WIND       PRES   REMARKS
FARMINGDALE    CLOUDY    46  32  58 NW10      30.02R
ISLIP          CLOUDY    45  32  60 NW15      29.99R
SHIRLEY        CLOUDY    46  33  60 NW8       30.01R
WESTHAMPTON    CLOUDY    46  33  60 NW9       30.01R
MONTAUK POINT    N/A     46  33  60 NW12G20   30.00R
$$

NYZ052-065-067-290400-
HUDSON VALLEY

CITY           SKY/WX    TMP DP  RH WIND       PRES   REMARKS
WHITE PLAINS   MOCLDY    41  31  67 NW13      30.01R
NEWBURGH       PTCLDY    39  30  70 NW9       30.03S WCI  33
MONTGOMERY     PTCLDY    39  27  62 NW6       30.03R WCI  35
POUGHKEEPSIE   MOCLDY    42  28  57 NW9       30.03R
ALBANY         CLOUDY    36  25  64 NW8       30.05S WCI  30
$$

NJZ001-105-106-008-010-013-015-019>022-104-290400-
NEW JERSEY

CITY           SKY/WX    TMP DP  RH WIND       PRES   REMARKS
NEWARK/LIBERTY MOCLDY    46  32  58 NW10      30.04R
TETERBORO      MOCLDY    45  32  60 NW8       30.04R
CALDWELL       MOCLDY    42  31  64 N6        30.05R
MORRISTOWN     MOCLDY    45  32  61 N5        30.05R
SOMERVILLE     CLOUDY    45  31  58 NW6       30.03R
SUSSEX         CLOUDY    40  28  62 VRB5      30.05R
ANDOVER        NOT AVBL
TRENTON        CLOUDY    46  32  58 N9        30.04R
MILLVILLE      CLOUDY    48  45  89 NW7       30.05R
ATLANTIC CITY  CLOUDY    47  45  93 W5        30.04R
WRIGHTSTOWN    CLOUDY    48  42  79 N8        30.01R
TOMS RIVER     CLOUDY    46  43  87 NW6       30.03R
BELMAR         CLOUDY    46  36  66 NW6       30.03R
$$

PAZ047>061-062-071-290400-
EASTERN PENNSYLVANIA

CITY           SKY/WX    TMP DP  RH WIND       PRES   REMARKS
PHILADELPHIA   LGT RAIN  50  41  71 W7        30.06R
ALLENTOWN      CLOUDY    43  32  65 N9        30.06R
SCRANTON       CLOUDY    37  26  64 NW15      30.06R WCI  28
$$

CTZ002-004>006-009-010-012-RIZ004-006-007-MAZ004-011-015-290400-
SOUTHERN NEW ENGLAND
 IN CT

CITY           SKY/WX    TMP DP  RH WIND       PRES   REMARKS
BRADLEY INTL   MOCLDY    39  25  57 NW14G24   30.00R WCI  31
HARTFORD       CLOUDY    39  27  62 N8        30.02R WCI  33
DANBURY        MOCLDY    40  29  64 N5        30.02R
WTRBRY/OXFORD  MOCLDY    37  25  60 N12       30.01R WCI  30
BRIDGEPORT     CLOUDY    44  32  62 NW7       30.02R
MERIDEN        CLOUDY    41  29  62 N9        30.01R
NEW HAVEN      CLOUDY    46  31  55 NW9       30.01R
CHESTER        FAIR      39  32  75 NW9G16    30.00R WCI  33
GROTON         CLOUDY    41  31  67 NW9       29.98R
WILLIMANTIC    CLOUDY    39  27  62 VRB6      29.99R WCI  35

 IN RI

CITY           SKY/WX    TMP DP  RH WIND       PRES   REMARKS
PROVIDENCE     CLOUDY    42  28  57 NW7       29.97R
BLOCK ISLAND   CLOUDY    45  32  61 NW9       29.97R
WESTERLY       CLOUDY    43  32  65 NW6       29.98R

 IN MA

CITY           SKY/WX    TMP DP  RH WIND       PRES   REMARKS
BOSTON         CLOUDY    42  29  59 W12       29.95R
WORCESTER      MOCLDY    34  27  75 W12       29.93R WCI  25
WESTFIELD      MOCLDY    38  25  59 NW18G28   29.99R WCI  28
PROVINCETOWN   CLOUDY    45  34  65 NW20      29.94R
NANTUCKET      CLOUDY    46  33  60 W10       29.94R
$$

ANZ330-335-338-340-345-350-353-355-290400-
COASTAL MARINE OBSERVATIONS


STATION/POSITION TIME  SKY/WX   TEMP    WIND        PRES    VSBY  WAVE
                                AIR SEA DIR/SP/G                  HT/PER
                 (UTC)          (F)     (DEG/KT/KT) (MB)    (MI)  (FT/S)
NY HARB ENTRANCE 0300            47 45  320/ 10/ 12 1017.2          3/ 7
4S FIRE IS       0300               46                N/A           4/ 6
20S FIRE ISLAND  0200            48 49              1016.1          4/ 7
23SW MTP         0300                                 N/A           4/ 8
HUDSON CANYON    0300            52 55  270/ 16/ 17 1015.3          5/ 7
EXECUTION ROCKS  0300            45 42  330/ 12/ 16   N/A
WESTERN LI SOUND 0300            45     300/  8/ 10   N/A           0
CENTRAL LI SOUND 0200            45 44  320/ 14/ 16   N/A           1/ 3
EASTERN LI SOUND NOT AVBL
ROBBINS REEF     0300            46                 1015.6
$$


>>>>>>>>>>>>>>>>>>>>>>>>>>>> KEY <<<<<<<<<<<<<<<<<<<<<<<<<<<
>                                                          <
>     SKY/WX - SKY CONDITION/PRESENT WEATHER               <
>     TMP    - TEMPERATURE IN FAHRENHEIT                   <
>     DP     - DEWPOINT IN FAHRENHEIT                      <
>     RH     - RELATIVE HUMIDITY IN PERCENT                <
>     WIND   - DIRECTION AND SPEED IN MPH                  <
>     PRES   - MEAN SEA LEVEL PRESSURE IN INCHES OF HG     <
>     WCI    - WIND CHILL INDEX                            <
>     VSB    - VISIBILITY IN MILES                         <
>     HX     - HEAT INDEX                                  <
>     TC     - TEMPERATURE IN CELSIUS                      <
>     VRB    - VARIABLE WIND DIRECTION                     <
>                                                          <
>>>>>>>>>>>>>>>>>>>>>>>>>>>> KEY <<<<<<<<<<<<<<<<<<<<<<<<<<<





USA.gov is the U.S. government's official web portal to all federal, state and local government web resources and services.